CZ-6A DEB, 56678

Orbit data source: Space-Track

CZ-6A DEB, 56678 is space debris in SSO originally from a launch on Fri, 11 Nov 2022 UTC launched from the Taiyaun Space Center, China (TSC). Debris objects in space refer to the collection of defunct objects orbiting the Earth. Examples of debris include non-operational satellites, rocket bodies, and fragments generated from explosions, collisions, or faulty payload assembly.

Loading next visibility...
Identifier
56678, 2022-151AHE
Orbit
SSO
Country
Flag of CNCN / PRC
Related business
Manufacturer
SAST
Mission
Spacecraft
Bus & Motor
Unknown
Mass
Unknown
Launch date (UTC)
2022-11-11 (4 years ago)
Launch vehicle
Unknown
Launch site
Taiyaun Space Center, China (TSC)
Object type
Payload
Rocket body
Debris
Shape & HBR
Unknown shape, 0.1 m
Radar Cross Section
Small (<0.1 m²)

Expand to show TLE details & history
Last TLE update: 4 days ago

TLE from 4 days ago
0 CZ-6A DEB
1 56678U 22151AHE 26169.20720123  .00001638  00000-0  89397-3 0  9991
2 56678  98.8338 166.9970 0063600 355.7469   4.3155 14.12460072162021
Epoch: 2026-06-18T04:58Z
TLE epoch observation values (Epoch: 2026-06-18T04:58:22.186Z)
Latitude
0.00003°
Longitude
-174.04929°
Altitude
808.012 km
Speed
7.473 km/s
True Right ascension
11h 07m 59s
True Declination
0° 00' 00"
Sunlit
Object was in daylight at epoch
Visualization orbit readout
Latitude
Unknown
Longitude
Unknown
Altitude
Unknown
Speed
Unknown
Apparent Right ascension
Unknown
Apparent Declination
Unknown
Sunlit
N/A
Visualization observer readout
Local Sidereal Time
21:56:20
Azimuth
Unknown
Elevation
Unknown
Doppler factor
Unknown
Orbital elements
Apogee altitude
894.099 km
Perigee altitude
802.181 km
Semi-major axis
7,226.277 km
Eccentricity
0.00636
Inclination
98.8338°
RAAN
166.997°
Arg. of periapsis
355.7469°
True anomaly
4.37078°
Mean anomaly
4.3155°
Eccentric anomaly
4.3431°
Mean motion
3.53322 °/min
Orbital period
101.89 mins
BSTAR
0.00089397
Loading maneuver chart data...
Computing Atmospheric mass density...
Loading historical data...
Loading historical data...
Loading historical data...
Loading historical data...
Loading historical data...
Loading historical data...
Loading historical data...

Documentation

Showing up to 5 results
|